FW5295 Weather Reports


Display with metric or nautical units.
time (UTC)temp
F
wind
direction
speed
MPH
gust
MPH
rain 1hr
in
rain 24hr
in
rain mn
in
humidity
%
barometer
mb
20260508085043 38 44 0.0 2.0 0.00 0.02 0.00 94 1010.5
20260508084544 38 315 0.0 2.0 0.00 0.02 0.00 94 1010.5
20260508084049 38 46 1.0 2.0 0.00 0.02 0.00 94 1010.2
20260508084042 38 32 0.0 2.0 0.00 0.02 0.00 94 1010.2
20260508082840 39 89 0.0 3.0 0.00 0.02 0.00 93 1010.2
20260508082601 39 25 0.0 3.0 0.00 0.02 0.00 93 1010.5
20260508081841 39 24 2.0 2.0 0.00 0.02 0.00 93 1010.9
20260508081338 39 32 0.0 2.0 0.00 0.02 0.00 93 1010.5
20260508080840 39 60 0.0 2.0 0.00 0.02 0.00 93 1010.5
20260508080337 39 35 0.0 2.0 0.00 0.02 0.00 93 1010.9
20260508075837 39 76 0.0 1.0 0.00 0.02 0.00 93 1010.5
20260508075558 39 72 0.0 2.0 0.00 0.02 0.00 92 1010.5
20260508074836 39 19 0.0 2.0 0.00 0.02 0.00 92 1010.5
20260508074334 39 13 0.0 2.0 0.00 0.02 0.00 92 1010.9
20260508073840 39 32 0.0 2.0 0.00 0.02 0.00 91 1010.5
20260508073334 39 26 2.0 2.0 0.00 0.02 0.00 91 1010.9
20260508072835 40 5 2.0 2.0 0.00 0.02 0.00 90 1010.9
20260508072334 40 12 2.0 2.0 0.00 0.02 0.00 90 1010.9
20260508072054 40 47 1.0 2.0 0.00 0.02 0.00 90 1010.9
20260508071333 40 34 1.0 2.0 0.00 0.02 0.00 89 1010.9
20260508070832 40 29 2.0 2.0 0.00 0.02 0.00 89 1010.9
20260508070333 40 35 1.0 2.0 0.00 0.02 0.00 88 1010.9
20260508065832 41 66 0.0 2.0 0.00 0.02 0.00 88 1011.2
20260508065331 41 341 1.0 2.0 0.00 0.02 0.00 88 1010.9
20260508064829 41 298 1.0 2.0 0.00 0.02 0.00 88 1010.9
20260508064330 41 304 0.0 2.0 0.00 0.02 0.00 88 1011.2
20260508063832 41 326 0.0 3.0 0.00 0.02 0.00 87 1010.9
20260508063550 41 29 3.0 3.0 0.00 0.02 0.00 86 1010.9
20260508062830 41 320 2.0 3.0 0.00 0.02 0.00 85 1011.2
20260508062326 40 355 2.0 3.0 0.00 0.02 0.00 84 1010.9
20260508061826 40 343 1.0 3.0 0.00 0.02 0.00 83 1010.9
20260508061559 41 354 1.0 2.0 0.00 0.02 0.00 82 1011.2
20260508061318 41 322 2.0 2.0 0.00 0.02 0.00 81 1010.9
20260508060325 41 350 1.0 2.0 0.00 0.02 0.00 80 1010.9
20260508060043 42 324 1.0 2.0 0.00 0.02 0.00 80 1010.9
20260508055324 42 328 1.0 2.0 0.00 0.02 0.00 80 1010.9
20260508054823 42 323 1.0 2.0 0.00 0.02 0.00 79 1010.9
20260508054322 42 358 1.0 2.0 0.00 0.02 0.00 79 1010.9
20260508053823 42 343 1.0 2.0 0.00 0.02 0.00 79 1010.9
20260508053547 42 356 2.0 3.0 0.00 0.02 0.00 78 1010.9
20260508052823 42 352 2.0 3.0 0.00 0.02 0.00 78 1010.5
20260508052321 42 350 2.0 3.0 0.00 0.02 0.00 78 1010.5
20260508051821 42 354 2.0 2.0 0.00 0.02 0.00 80 1010.9
20260508051319 42 8 2.0 3.0 0.00 0.02 0.00 81 1010.9
20260508050818 42 25 2.0 3.0 0.00 0.02 0.00 81 1010.5
20260508050318 42 329 0.0 2.0 0.00 0.02 0.00 82 1010.9
20260508045818 42 10 0.0 2.0 0.00 0.02 0.02 82 1010.5
20260508045318 42 218 0.0 1.0 0.00 0.02 0.02 82 1010.5
20260508044820 42 175 0.0 1.0 0.00 0.02 0.02 82 1010.9
20260508044316 43 150 0.0 1.0 0.00 0.02 0.02 81 1010.5
20260508043817 43 135 0.0 4.0 0.00 0.02 0.02 80 1010.5
20260508043314 44 131 0.0 4.0 0.00 0.02 0.02 79 1010.5
20260508043257 44 153 4.0 4.0 0.00 0.02 0.02 78 1010.5
20260508042312 44 143 2.0 2.0 0.00 0.02 0.02 77 1010.5
20260508041815 45 55 0.0 2.0 0.00 0.02 0.02 77 1010.5
20260508041313 45 26 1.0 2.0 0.00 0.02 0.02 77 1010.2
20260508040812 45 24 1.0 2.0 0.00 0.02 0.02 76 1010.2
20260508040311 45 44 0.0 1.0 0.00 0.02 0.02 77 1010.2
20260508035812 45 39 0.0 2.0 0.00 0.02 0.02 78 1010.2
20260508035311 46 32 0.0 2.0 0.00 0.02 0.02 80 1010.2
20260508034810 46 25 2.0 4.0 0.00 0.02 0.02 80 1010.2
20260508034309 46 17 0.0 4.0 0.00 0.02 0.02 80 1009.8
20260508033809 46 30 1.0 2.0 0.00 0.02 0.02 77 1009.8
20260508033310 46 30 1.0 2.0 0.00 0.02 0.02 74 1009.8
20260508032810 46 43 1.0 2.0 0.00 0.02 0.02 73 1009.8
20260508032308 46 32 1.0 2.0 0.00 0.02 0.02 75 1009.8
20260508031808 46 34 1.0 2.0 0.00 0.02 0.02 75 1009.8
20260508031306 46 46 1.0 2.0 0.00 0.02 0.02 76 1009.8
20260508031031 46 44 0.0 1.0 0.00 0.02 0.02 76 1009.8
20260508030530 46 44 0.0 1.0 0.00 0.02 0.02 76 1009.8
20260508025810 46 13 0.0 1.0 0.00 0.02 0.02 77 1009.8
20260508025528 46 32 0.0 2.0 0.00 0.02 0.02 77 1010.2
20260508024805 46 38 1.0 2.0 0.00 0.02 0.02 77 1009.8
20260508024303 46 28 0.0 2.0 0.00 0.02 0.02 78 1009.8
20260508023803 46 35 1.0 2.0 0.00 0.02 0.02 77 1009.8
20260508023302 46 35 1.0 2.0 0.00 0.02 0.02 78 1009.8
20260508022801 47 21 2.0 2.0 0.00 0.02 0.02 81 1009.4
20260508022302 47 38 1.0 2.0 0.00 0.02 0.02 82 1009.8
20260508021800 47 57 1.0 2.0 0.00 0.02 0.02 81 1009.4
20260508021746 47 22 0.0 2.0 0.00 0.02 0.02 79 1009.4
20260508020802 48 22 0.0 2.0 0.00 0.02 0.02 75 1009.4
20260508020300 48 135 0.0 2.0 0.00 0.02 0.02 74 1009.4
20260508020021 48 235 0.0 2.0 0.00 0.02 0.02 72 1009.4
20260508015257 48 113 0.0 1.0 0.00 0.02 0.02 73 1009.1
20260508014759 49 81 0.0 1.0 0.00 0.02 0.02 73 1009.1
20260508014257 49 76 0.0 1.0 0.00 0.02 0.02 73 1009.1
20260508013758 49 119 0.0 1.0 0.00 0.02 0.02 69 1008.7
20260508013519 50 116 0.0 1.0 0.00 0.02 0.02 71 1008.7
20260508012757 50 89 0.0 2.0 0.00 0.02 0.02 69 1008.7
20260508012254 50 55 0.0 2.0 0.00 0.02 0.02 70 1008.7
20260508011758 51 30 1.0 2.0 0.00 0.02 0.02 73 1008.7
20260508011254 51 49 0.0 2.0 0.00 0.02 0.02 68 1008.7
20260508010753 51 66 0.0 2.0 0.00 0.02 0.02 65 1008.7
20260508010254 52 135 0.0 2.0 0.00 0.02 0.02 67 1008.7
20260508005753 53 159 0.0 2.0 0.00 0.02 0.02 64 1008.7
20260508005252 53 147 0.0 2.0 0.00 0.02 0.02 64 1008.7
20260508004753 54 38 0.0 2.0 0.00 0.02 0.02 68 1008.4
20260508004526 54 44 0.0 1.0 0.00 0.02 0.02 60 1008.4
20260508003750 55 154 0.0 3.0 0.00 0.02 0.02 59 1008.4
20260508003251 55 164 0.0 3.0 0.00 0.02 0.02 55 1008.7
20260508003024 56 185 0.0 2.0 0.00 0.02 0.02 56 1008.4
20260508002249 56 166 0.0 4.0 0.00 0.02 0.02 54 1008.4
20260508001749 56 232 1.0 4.0 0.00 0.02 0.02 53 1008.4
20260508001248 56 116 0.0 4.0 0.00 0.02 0.02 51 1008.4
20260508001009 56 241 0.0 4.0 0.00 0.02 0.02 52 1008.4
20260508000731 56 193 0.0 4.0 0.00 0.02 0.02 53 1008.4
20260507235747 56 157 1.0 4.0 0.00 0.02 0.02 54 1008.7
20260507235245 56 234 1.0 3.0 0.00 0.02 0.02 55 1008.7
20260507234745 56 173 0.0 3.0 0.00 0.02 0.02 55 1008.4
20260507234244 56 185 0.0 3.0 0.00 0.02 0.02 53 1008.7
20260507233745 56 256 1.0 5.0 0.00 0.02 0.02 53 1008.4
20260507233733 56 214 0.0 6.0 0.00 0.02 0.02 54 1008.4
20260507232744 57 245 6.0 6.0 0.00 0.02 0.02 53 1008.7
20260507232243 57 207 2.0 4.0 0.00 0.02 0.02 53 1008.7
20260507232000 58 230 2.0 5.0 0.00 0.02 0.02 53 1008.7
20260507231240 58 223 3.0 5.0 0.00 0.02 0.02 51 1008.7
20260507230743 58 253 4.0 6.0 0.00 0.02 0.02 51 1008.7
20260507230240 58 277 1.0 9.0 0.00 0.02 0.02 51 1008.7
20260507225743 58 232 5.0 10.0 0.00 0.02 0.02 51 1009.1
20260507225239 58 247 4.0 10.0 0.00 0.02 0.02 50 1009.1
20260507224742 58 224 5.0 10.0 0.00 0.02 0.02 50 1009.1
20260507224250 58 198 2.0 6.0 0.00 0.02 0.02 53 1009.1
20260507223752 58 243 4.0 9.0 0.00 0.02 0.02 53 1009.1
20260507223237 58 249 1.0 15.0 0.00 0.02 0.02 50 1009.1
20260507222737 58 252 5.0 15.0 0.00 0.02 0.02 52 1009.1
20260507222501 57 226 2.0 10.0 0.01 0.02 0.02 53 1009.1
20260507221735 56 190 2.0 6.0 0.01 0.02 0.02 57 1009.1
20260507221234 55 178 5.0 5.0 0.01 0.02 0.02 58 1009.4
20260507220735 55 320 2.0 5.0 0.02 0.02 0.02 59 1009.4
20260507220233 56 271 2.0 5.0 0.02 0.02 0.02 57 1009.1
20260507215733 55 283 3.0 5.0 0.02 0.02 0.02 58 1009.4
20260507215234 55 146 3.0 4.0 0.02 0.02 0.02 59 1009.4
20260507214735 54 203 2.0 4.0 0.02 0.02 0.02 65 1009.1
20260507214231 54 157 1.0 4.0 0.02 0.02 0.02 65 1009.1
20260507213731 52 98 1.0 4.0 0.02 0.02 0.02 70 1009.1
20260507213231 51 60 0.0 8.0 0.02 0.02 0.02 73 1009.1
20260507212732 51 65 5.0 8.0 0.02 0.02 0.02 71 1009.4
20260507212229 51 31 3.0 4.0 0.01 0.01 0.01 73 1009.8
20260507211731 51 180 0.0 8.0 0.01 0.01 0.01 70 1009.8
20260507211230 53 237 4.0 8.0 0.01 0.01 0.01 66 1009.8
20260507210729 53 251 2.0 6.0 0.00 0.00 0.00 62 1009.8
20260507210229 53 321 1.0 6.0 0.00 0.00 0.00 60 1009.8
20260507205948 53 297 2.0 6.0 0.00 0.00 0.00 60 1009.4
20260507205227 53 317 2.0 10.0 0.00 0.00 0.00 60 1009.4
20260507204951 53 273 3.0 10.0 0.00 0.00 0.00 60 1009.1
20260507204225 53 17 3.0 8.0 0.00 0.00 0.00 59 1009.4
20260507203725 54 0 3.0 9.0 0.00 0.00 0.00 56 1009.1
20260507203445 55 260 2.0 10.0 0.00 0.00 0.00 58 1009.4
20260507202726 56 204 0.0 16.0 0.00 0.00 0.00 58 1009.4
20260507202440 58 245 6.0 16.0 0.00 0.00 0.00 50 1009.4
20260507201723 58 268 5.0 13.0 0.00 0.00 0.00 51 1009.1
20260507201222 59 214 3.0 16.0 0.00 0.00 0.00 48 1009.1
20260507200723 60 229 5.0 17.0 0.00 0.00 0.00 46 1009.1
20260507200221 60 240 7.0 17.0 0.00 0.00 0.00 46 1009.1
20260507195941 60 199 4.0 11.0 0.00 0.00 0.00 49 1009.1
20260507195219 59 193 5.0 11.0 0.00 0.00 0.00 47 1009.1
20260507194721 59 214 3.0 9.0 0.00 0.00 0.00 49 1009.4
20260507194219 60 251 5.0 13.0 0.00 0.00 0.00 47 1009.4
20260507193719 59 250 9.0 13.0 0.00 0.00 0.00 48 1009.8
20260507193217 59 249 3.0 10.0 0.00 0.00 0.00 48 1009.8
20260507192719 58 273 5.0 14.0 0.00 0.00 0.00 50 1009.8
20260507192216 60 246 3.0 14.0 0.00 0.00 0.00 48 1009.8
20260507191718 59 219 5.0 11.0 0.00 0.00 0.00 48 1009.8
20260507191216 59 249 3.0 13.0 0.00 0.00 0.00 49 1010.2
20260507190716 59 250 8.0 13.0 0.00 0.00 0.00 52 1010.2
20260507190214 57 253 6.0 13.0 0.00 0.00 0.00 51 1010.5
20260507185930 58 218 8.0 13.0 0.00 0.00 0.00 49 1010.2
20260507185810 57 215 3.0 13.0 0.00 0.00 0.00 51 1010.5
20260507184715 58 212 4.0 12.0 0.00 0.00 0.00 50 1010.9
20260507184433 58 199 2.0 12.0 0.00 0.00 0.00 48 1010.5
20260507183712 57 286 6.0 10.0 0.00 0.00 0.00 51 1010.5
20260507183212 57 203 6.0 10.0 0.00 0.00 0.00 48 1010.9
20260507182712 57 205 4.0 19.0 0.00 0.00 0.00 48 1010.5
20260507182210 57 213 6.0 19.0 0.00 0.00 0.00 49 1010.9
20260507181712 57 206 4.0 12.0 0.00 0.00 0.00 47 1010.9
20260507181211 57 203 3.0 14.0 0.00 0.00 0.00 46 1010.9
20260507180942 57 203 5.0 16.0 0.00 0.00 0.00 45 1010.9
20260507180209 58 202 6.0 16.0 0.00 0.00 0.00 44 1010.9
20260507175709 58 265 4.0 11.0 0.00 0.00 0.00 45 1010.9
20260507175210 58 211 5.0 11.0 0.00 0.00 0.00 45 1011.2
20260507174707 57 195 5.0 11.0 0.00 0.00 0.00 43 1010.9
20260507174207 57 269 2.0 11.0 0.00 0.00 0.00 45 1010.9
20260507173707 57 220 3.0 15.0 0.00 0.00 0.00 42 1011.2
20260507173206 57 315 2.0 15.0 0.00 0.00 0.00 41 1011.5
20260507172706 57 212 3.0 13.0 0.00 0.00 0.00 46 1011.5
20260507172205 57 226 4.0 13.0 0.00 0.00 0.00 43 1011.9
20260507171937 58 216 9.0 11.0 0.00 0.00 0.00 46 1011.5
20260507171204 58 232 3.0 12.0 0.00 0.00 0.00 43 1011.9
20260507170703 57 242 6.0 15.0 0.00 0.00 0.00 46 1011.9
20260507170427 56 228 1.0 15.0 0.00 0.00 0.00 44 1011.9
20260507165925 56 215 3.0 9.0 0.00 0.00 0.00 42 1012.2
20260507165202 56 246 7.0 9.0 0.00 0.00 0.00 46 1012.2
20260507164701 56 197 3.0 9.0 0.00 0.00 0.00 43 1012.2
20260507164159 56 231 4.0 9.0 0.00 0.00 0.00 50 1012.2
20260507163702 55 124 4.0 9.0 0.00 0.00 0.00 50 1012.5
20260507163159 55 177 3.0 11.0 0.00 0.00 0.00 46 1012.5
20260507162659 55 177 2.0 11.0 0.00 0.00 0.00 47 1012.5
20260507162157 55 174 3.0 10.0 0.00 0.00 0.00 48 1012.5
20260507161659 55 274 2.0 7.0 0.00 0.00 0.00 44 1012.2
20260507161156 55 227 4.0 8.0 0.00 0.00 0.00 43 1012.5
20260507160917 54 197 4.0 11.0 0.00 0.00 0.00 44 1012.5
20260507160156 54 162 4.0 11.0 0.00 0.00 0.00 43 1012.5
20260507155658 54 204 3.0 7.0 0.00 0.00 0.00 46 1012.5
20260507155154 54 216 3.0 9.0 0.00 0.00 0.00 43 1012.9
20260507154657 53 187 4.0 10.0 0.00 0.00 0.00 45 1013.3
20260507154153 53 231 5.0 10.0 0.00 0.00 0.00 45 1012.9
20260507153653 53 223 4.0 10.0 0.00 0.00 0.00 46 1013.3
20260507153153 53 207 6.0 10.0 0.00 0.00 0.00 46 1013.3
20260507152653 51 181 5.0 10.0 0.00 0.00 0.00 43 1013.3
20260507152151 52 267 2.0 10.0 0.00 0.00 0.00 44 1013.3
20260507151651 52 186 2.0 8.0 0.00 0.00 0.00 52 1013.7
20260507151150 52 203 1.0 7.0 0.00 0.00 0.00 47 1013.7
20260507150651 51 145 5.0 7.0 0.00 0.00 0.00 47 1013.7
20260507150150 51 158 3.0 5.0 0.00 0.00 0.00 50 1013.7
20260507145652 50 227 3.0 5.0 0.00 0.00 0.00 48 1013.7
20260507145149 50 178 3.0 6.0 0.00 0.00 0.00 47 1014.0
20260507144648 50 163 0.0 6.0 0.00 0.00 0.00 47 1014.0
20260507144148 49 157 3.0 9.0 0.00 0.00 0.00 51 1014.3
20260507143648 49 250 2.0 9.0 0.00 0.00 0.00 48 1014.3
20260507143146 49 230 3.0 6.0 0.00 0.00 0.00 48 1014.3
20260507143126 49 194 1.0 5.0 0.00 0.00 0.00 51 1014.3
20260507142147 48 181 3.0 5.0 0.00 0.00 0.00 53 1014.7
20260507141917 48 201 2.0 6.0 0.00 0.00 0.00 53 1014.3
20260507141631 48 218 2.0 6.0 0.00 0.00 0.00 53 1014.3
20260507140648 47 224 3.0 5.0 0.00 0.00 0.00 53 1014.7
20260507140143 47 197 1.0 6.0 0.00 0.00 0.00 53 1014.3
20260507135645 47 200 2.0 6.0 0.00 0.00 0.00 55 1014.3
20260507135142 47 158 2.0 6.0 0.00 0.00 0.00 57 1014.3
20260507135129 46 180 3.0 6.0 0.00 0.00 0.00 56 1014.3
20260507134141 46 188 2.0 6.0 0.00 0.00 0.00 56 1014.7
20260507133641 45 266 3.0 4.0 0.00 0.00 0.00 58 1014.7
20260507133148 44 180 0.0 7.0 0.00 0.00 0.00 59 1014.3
20260507133140 44 206 2.0 7.0 0.00 0.00 0.00 59 1014.7
20260507132141 44 229 1.0 4.0 0.00 0.00 0.00 60 1014.7
20260507131643 44 207 1.0 4.0 0.00 0.00 0.00 61 1014.7
20260507131138 42 222 1.0 3.0 0.00 0.00 0.00 65 1014.7
20260507130637 42 135 0.0 2.0 0.00 0.00 0.00 65 1015.0
20260507130151 42 93 1.0 2.0 0.00 0.00 0.00 64 1014.7
20260507125901 42 157 0.0 3.0 0.00 0.00 0.00 64 1015.0
20260507125137 41 185 0.0 3.0 0.00 0.00 0.00 66 1015.0
20260507124636 40 113 1.0 2.0 0.00 0.00 0.00 66 1015.0
20260507124137 40 119 0.0 2.0 0.00 0.00 0.00 66 1014.7
20260507123636 40 176 0.0 2.0 0.00 0.00 0.00 65 1015.0
20260507123143 37 224 0.0 2.0 0.00 0.00 0.00 73 1014.7
20260507123134 39 212 0.0 2.0 0.00 0.00 0.00 68 1014.7
20260507122140 37 180 0.0 2.0 0.00 0.00 0.00 75 1014.3
20260507121635 37 197 0.0 1.0 0.00 0.00 0.00 78 1014.3
20260507121351 36 102 0.0 1.0 0.00 0.00 0.00 81 1014.7
20260507120632 36 81 0.0 0.0 0.00 0.00 0.00 83 1014.3
20260507120350 35 124 0.0 1.0 0.00 0.00 0.00 83 1014.3
20260507115852 35 154 0.0 1.0 0.00 0.00 0.00 84 1014.3
20260507115130 35 124 0.0 1.0 0.00 0.00 0.00 85 1014.3
20260507114631 34 48 0.0 1.0 0.00 0.00 0.00 86 1014.3
20260507114128 34 60 0.0 1.0 0.00 0.00 0.00 87 1014.3
20260507113628 33 106 1.0 2.0 0.00 0.00 0.00 87 1014.3
20260507113143 33 56 1.0 2.0 0.00 0.00 0.00 87 1014.3
20260507112629 32 68 1.0 1.0 0.00 0.00 0.00 86 1014.3
20260507112127 32 212 0.0 0.0 0.00 0.00 0.00 86 1014.3
20260507111849 32 110 0.0 0.0 0.00 0.00 0.00 86 1014.0
20260507111346 32 119 0.0 1.0 0.00 0.00 0.00 85 1014.3
20260507110850 32 148 1.0 1.0 0.00 0.00 0.00 85 1014.0
20260507110602 32 32 0.0 1.0 0.00 0.00 0.00 84 1014.3
20260507105846 32 11 0.0 1.0 0.00 0.00 0.00 85 1014.3
20260507105123 32 34 0.0 1.0 0.00 0.00 0.00 85 1014.0
20260507104624 32 52 0.0 1.0 0.00 0.00 0.00 84 1014.3
20260507104122 32 44 0.0 1.0 0.00 0.00 0.00 84 1014.3
20260507103622 32 345 0.0 1.0 0.00 0.00 0.00 84 1014.3
20260507103123 32 55 0.0 1.0 0.00 0.00 0.00 84 1014.3
20260507102622 32 55 0.0 1.0 0.00 0.00 0.00 84 1014.3
20260507102342 32 38 0.0 1.0 0.00 0.00 0.00 84 1014.3
20260507101852 32 57 0.0 0.0 0.00 0.00 0.00 84 1014.0
20260507101120 32 55 0.0 0.0 0.00 0.00 0.00 85 1014.3
20260507100620 32 69 0.0 0.0 0.00 0.00 0.00 85 1014.3
20260507100117 32 32 0.0 0.0 0.00 0.00 0.00 85 1014.3
20260507095850 32 103 0.0 1.0 0.00 0.00 0.00 85 1014.3
20260507095118 32 53 0.0 1.0 0.00 0.00 0.00 85 1014.3
20260507094616 32 66 0.0 2.0 0.00 0.00 0.00 85 1014.3
20260507094118 32 32 0.0 2.0 0.00 0.00 0.00 84 1014.3
20260507093624 32 25 0.0 2.0 0.00 0.00 0.00 84 1014.3
20260507093114 32 34 0.0 0.0 0.00 0.00 0.00 84 1014.3
20260507092615 32 130 0.0 0.0 0.00 0.00 0.00 84 1014.3
20260507092113 32 69 0.0 1.0 0.00 0.00 0.00 84 1014.3
20260507091615 32 72 0.0 1.0 0.00 0.00 0.00 83 1014.3
20260507091125 32 63 0.0 1.0 0.00 0.00 0.00 83 1014.3
20260507090613 32 44 0.0 1.0 0.00 0.00 0.00 82 1014.3
20260507090338 32 19 0.0 0.0 0.00 0.00 0.00 82 1014.3
20260507085611 33 126 0.0 1.0 0.00 0.00 0.00 82 1014.3